Regional Weather Roundup
Issued by NWS Green Bay, WI

Home | Current Version | Previous Version | Text Only | Print | Product List | Glossary On
Versions: 1 2 3 4 5 6 7 8 9 10 11 12 13 14 15 16 17 18 19 20 21 22 23 24 25 26 27 28 29 30 31 32 33 34 35 36 37 38 39 40 41 42 43 44 45 46 47 48 49 50
000
ASUS43 KGRB 230410
RWRGRB

NORTH-CENTRAL AND NORTHEAST WISCONSIN REGIONAL WEATHER ROUNDUP
NATIONAL WEATHER SERVICE GREEN BAY WI
1100 PM CDT TUE JUL 22 2014

WIZ005-009-010>012-018-019-230500-
NORTH CENTRAL WISCONSIN

CITY           SKY/WX    TMP DP  RH WIND       PRES   REMARKS
IRONWOOD       NOT AVBL
MANITOWISH WTR CLEAR     55  55 100 CALM      30.14S
ARBOR VITAE    CLEAR     57  53  87 CALM      30.14S
EAGLE RIVER    CLEAR     55  55 100 CALM      30.13S FOG
LAND O LAKES   CLEAR     53  52  97 CALM      30.15R FOG
RHINELANDER    CLEAR     59  56  89 N3        30.14S
PHILLIPS       CLEAR     60  57  88 N3        30.14S
ANTIGO         CLEAR     60  57  92 N8        30.12R
TOMAHAWK       CLEAR     59  56  90 CALM      30.14R
MERRILL        CLEAR     60  58  94 N5        30.12S
$$

WIZ013-073-230500-
NORTHEAST WISCONSIN

CITY           SKY/WX    TMP DP  RH WIND       PRES   REMARKS
IRON MOUNTAIN  CLEAR     59  55  87 NW6       30.08S
MARINETTE      CLEAR     64  54  68 N10       30.06R
OCONTO         CLEAR     65  57  73 N8        30.06R
$$

WIZ017-030-035>037-045-230500-
CENTRAL WISCONSIN

CITY           SKY/WX    TMP DP  RH WIND       PRES   REMARKS
MEDFORD        CLEAR     62  57  85 NE6       30.13R
WAUSAU         CLEAR     66  58  75 N7        30.09S
MOSINEE        CLEAR     64  59  82 N9        30.11S
MARSHFIELD     CLEAR     67  57  70 N10       30.10S
WISC RAPIDS    CLEAR     68  59  73 N13       30.09S
STEVENS POINT  CLEAR     64  57  78 N7        30.10R
WAUPACA        CLEAR     70  59  68 N9G16     30.06R
SHAWANO        CLEAR     68  59  73 N12       30.08R
CLINTONVILLE   CLEAR     68  55  64 N8        30.07R
$$

WIZ038-039-048-051-230500-
FOX VALLEY

CITY           SKY/WX    TMP DP  RH WIND       PRES   REMARKS
NWS GREEN BAY  CLEAR     67  58  72 N10       30.05R
APPLETON       PTCLDY    68  55  64 N15G23    30.06R
OSHKOSH        CLEAR     70  59  68 N15G24    30.05R
FOND DU LAC    PTCLDY    73  60  63 N15G24    30.05R
$$

WIZ022-050-052-230500-
EAST CENTRAL WISCONSIN

CITY           SKY/WX    TMP DP  RH WIND       PRES   REMARKS
STURGEON BAY   CLEAR     64  55  72 N20G25    30.05S
MANITOWOC      CLOUDY    69  60  73 N14G21    30.04R
SHEBOYGAN      CLOUDY    74  63  68 N15G23    30.01R
$$

LMZ563-521-522-541>543-230500-
LAKESHORE

STATION/POSITION TIME  TEMP    WIND        PRES    VSBY  WAVE
                       AIR SEA DIR/SP/G                  HT/PER
                 (UTC) (F)     (DEG/KT/KT) (MB)    (MI)  (FT/S)
SHEBOYGAN LKSHOR 0400           40/ 21/ 22 1016.9R
KEWAUNEE LKSHORE 0400   68     360/ 11/ 21 1017.9S
NORTHPORT PIER   0400   65     350/ 22/ 29 1017.3R
N MID LAKE BUOY  0400   59 54  340/ 16/ 19 1016.3R         4/ 6
CHAMBERS ISLAND  0400   65     320/ 13/ 17 1017.6R
MENOMINEE LKSHOR 0400   59     340/ 12/ 15 1018.5R
$$



USA.gov is the U.S. government's official web portal to all federal, state and local government web resources and services.